DL8NDG-13 Weather Reports


Display with metric or nautical units.
time (UTC)temp
F
wind
direction
speed
MPH
gust
MPH
rain 1hr
in
rain 24hr
in
rain mn
in
humidity
%
barometer
mb
20260508051522 48 155 0.0 0.0 0.00 0.14 0.00 82 1016.8
20260508050017 47 156 0.0 0.0 0.00 0.14 0.00 82 1016.5
20260508044507 47 155 0.0 0.0 0.00 0.14 0.00 83 1016.6
20260508043005 47 155 0.0 0.0 0.00 0.14 0.00 83 1016.5
20260508041502 47 128 0.0 0.0 0.00 0.14 0.00 83 1016.4
20260508040107 47 148 0.0 0.0 0.00 0.14 0.00 83 1016.4
20260508034600 47 141 0.0 0.0 0.00 0.14 0.00 83 1016.1
20260508033059 47 142 0.0 0.0 0.00 0.14 0.00 83 1016.0
20260508031606 47 229 0.0 0.0 0.00 0.14 0.00 83 1016.0
20260508030105 47 165 0.0 0.0 0.00 0.14 0.00 83 1015.9
20260508024557 46 148 0.0 0.0 0.00 0.14 0.00 84 1016.0
20260508023056 46 128 0.0 0.0 0.00 0.14 0.00 85 1015.9
20260508021603 45 228 0.0 0.0 0.00 0.14 0.00 85 1016.0
20260508020154 45 228 0.0 0.0 0.00 0.14 0.00 86 1016.0
20260508014552 45 167 0.0 0.0 0.00 0.14 0.00 86 1015.9
20260508013050 46 165 0.0 0.0 0.00 0.14 0.00 86 1015.9
20260508011551 46 165 0.0 0.0 0.00 0.14 0.00 86 1016.0
20260508010146 47 165 0.0 0.0 0.00 0.14 0.00 86 1016.0
20260508004542 47 148 0.0 0.0 0.00 0.16 0.00 86 1016.2
20260508003041 48 142 0.0 0.0 0.00 0.16 0.00 86 1016.3
20260508001540 48 252 0.0 0.0 0.00 0.16 0.00 86 1016.3
20260508000052 48 229 0.0 0.0 0.00 0.16 0.00 86 1016.3
20260507234544 48 165 0.0 0.0 0.00 0.17 0.00 86 1016.3
20260507233037 48 165 0.0 0.0 0.00 0.17 0.00 86 1016.3
20260507231542 48 148 0.0 0.0 0.00 0.17 0.00 86 1016.4
20260507230034 48 142 0.0 0.0 0.00 0.17 0.00 87 1016.4
20260507224533 48 230 0.0 0.0 0.00 0.18 0.00 87 1016.4
20260507223032 48 229 0.0 0.0 0.00 0.18 0.00 87 1016.3
20260507221531 48 165 0.0 0.0 0.00 0.18 0.00 87 1016.3
20260507220029 48 148 0.0 0.0 0.00 0.18 0.00 87 1016.3
20260507214530 49 148 0.0 0.0 0.00 0.18 0.18 87 1016.1
20260507213026 49 149 0.0 0.0 0.00 0.18 0.18 87 1016.0
20260507211533 49 252 0.0 0.0 0.00 0.18 0.18 87 1016.0
20260507210024 50 229 0.0 0.0 0.00 0.18 0.18 87 1016.0
20260507204524 50 165 0.0 0.0 0.00 0.20 0.18 87 1016.0
20260507203021 50 165 0.0 0.0 0.00 0.20 0.18 87 1015.9
20260507201519 50 166 0.0 0.0 0.00 0.20 0.18 87 1015.7
20260507200017 50 149 0.0 0.0 0.00 0.20 0.18 87 1015.6
20260507194516 50 252 0.0 0.0 0.00 0.20 0.18 87 1015.5
20260507193020 50 142 0.0 0.0 0.00 0.20 0.18 86 1015.5
20260507191513 51 229 0.0 0.0 0.00 0.20 0.18 86 1015.3
20260507190016 51 166 0.0 0.0 0.00 0.20 0.18 86 1014.9
20260507184512 51 148 0.0 0.0 0.00 0.31 0.18 86 1015.0
20260507183011 51 149 0.0 0.0 0.00 0.31 0.18 85 1014.9
20260507181510 51 148 0.0 0.0 0.00 0.31 0.18 85 1014.7
20260507180007 51 142 0.0 0.0 0.00 0.31 0.18 84 1014.6
20260507174514 51 229 0.0 0.0 0.00 0.31 0.18 84 1014.6
20260507173004 52 229 0.0 0.0 0.00 0.31 0.18 84 1014.5
20260507171501 52 164 0.0 0.0 0.00 0.31 0.18 83 1014.4
20260507170002 53 148 0.0 0.0 0.00 0.31 0.18 82 1014.3
20260507164502 53 250 3.0 7.0 0.00 0.44 0.18 82 1014.3
20260507163059 53 146 0.0 8.0 0.00 0.44 0.18 82 1014.3
20260507161600 53 193 5.0 9.0 0.00 0.44 0.18 82 1014.2
20260507160200 53 195 4.0 7.0 0.00 0.44 0.18 82 1014.2
20260507154557 53 238 4.0 9.0 0.00 0.44 0.18 82 1014.1
20260507153056 52 196 6.0 11.0 0.00 0.44 0.18 83 1014.0
20260507151559 52 209 3.0 8.0 0.00 0.44 0.18 83 1013.9
20260507150055 52 255 4.0 7.0 0.00 0.44 0.18 83 1013.9
20260507144554 53 232 4.0 9.0 0.00 0.44 0.18 82 1013.9
20260507143058 53 192 4.0 12.0 0.00 0.44 0.18 82 1013.9
20260507141602 53 200 5.0 10.0 0.00 0.44 0.18 83 1013.8
20260507140109 53 205 4.0 13.0 0.00 0.44 0.18 84 1013.7
20260507134550 52 193 6.0 9.0 0.00 0.44 0.18 86 1013.7
20260507133056 51 221 3.0 9.0 0.00 0.44 0.18 87 1013.8
20260507131613 51 202 5.0 11.0 0.00 0.44 0.18 87 1013.6
20260507130046 51 192 6.0 12.0 0.00 0.44 0.18 86 1013.6
20260507124552 52 184 5.0 10.0 0.00 0.44 0.18 86 1013.4
20260507123045 52 173 6.0 11.0 0.00 0.44 0.18 85 1013.3
20260507121542 52 169 9.0 12.0 0.00 0.44 0.18 85 1013.2
20260507120042 52 225 5.0 10.0 0.00 0.44 0.18 85 1013.1
20260507114539 52 172 8.0 15.0 0.00 0.44 0.18 85 1013.0
20260507113101 53 192 6.0 10.0 0.00 0.44 0.18 86 1012.9
20260507111534 52 205 5.0 11.0 0.00 0.44 0.18 87 1012.8
20260507110037 52 178 5.0 11.0 0.00 0.44 0.18 87 1012.7
20260507104530 52 186 5.0 14.0 0.00 0.44 0.18 87 1012.6
20260507103027 51 188 6.0 11.0 0.00 0.44 0.18 86 1012.6
20260507101527 52 174 5.0 11.0 0.02 0.44 0.18 86 1012.5
20260507100033 51 174 5.0 12.0 0.04 0.44 0.18 85 1012.5
20260507094520 51 171 5.0 10.0 0.04 0.44 0.18 85 1012.3
20260507093018 51 360 5.0 10.0 0.04 0.44 0.18 85 1012.2
20260507091520 51 360 6.0 11.0 0.03 0.42 0.16 85 1012.0
20260507090014 51 177 2.0 9.0 0.01 0.40 0.14 85 1011.7
20260507084532 51 178 4.0 8.0 0.02 0.40 0.14 84 1011.7
20260507083019 51 218 4.0 9.0 0.02 0.40 0.14 83 1011.3
20260507081507 50 236 5.0 12.0 0.02 0.39 0.13 83 1011.1
20260507080005 51 225 3.0 9.0 0.03 0.39 0.13 82 1011.0
20260507074602 51 219 0.0 0.0 0.04 0.38 0.12 82 1010.7
20260507073108 50 360 0.0 0.0 0.06 0.38 0.12 82 1010.5
20260507071555 50 186 0.0 0.0 0.06 0.37 0.11 82 1010.4
20260507070106 50 210 0.0 0.0 0.06 0.36 0.10 83 1010.4
20260507064556 50 208 0.0 6.0 0.04 0.34 0.08 83 1010.2
20260507063055 50 205 3.0 7.0 0.02 0.32 0.06 84 1010.0
20260507061550 50 178 4.0 10.0 0.01 0.31 0.05 84 1009.9
20260507060048 50 180 4.0 11.0 0.00 0.30 0.04 84 1009.8
20260507054545 50 171 5.0 8.0 0.00 0.30 0.04 83 1009.6
20260507053043 50 172 2.0 8.0 0.00 0.30 0.04 83 1009.4